Terminal Aerodrome Forecast
Issued by NWS Sterling, VA

Current Version | Previous Version | Graphics & Text | Print | Product List | Glossary On
Versions: 1 2 3 4 5 6 7 8 9 10 11 12 13 14 15 16 17 18 19 20 21 22 23 24 25
000
FTUS41 KLWX 291458 AAA
TAFDCA
TAF AMD
KDCA 291458Z 2915/3012 16008KT P6SM SCT050 BKN250
     FM292300 18005KT P6SM SCT100
     FM300200 18005KT P6SM BKN090
     FM300500 19005KT P6SM SCT250=

USA.gov is the U.S. government's official web portal to all federal, state and local government web resources and services.